Regional Weather Roundup
Issued by NWS Kansas City/Pleasant Hill, MO

Home | Current Version | Previous Version | Text Only | Print | Product List | Glossary On
Versions: 1 2 3 4 5 6 7 8 9 10 11 12 13 14 15 16 17 18 19 20 21 22 23 24 25 26 27 28 29 30 31 32 33 34 35 36 37 38 39 40 41 42 43 44 45 46 47 48 49 50
000
ASUS43 KEAX 221410
RWREAX

WEATHER ROUNDUP FOR EASTERN KANSAS AND NORTHWEST MISSOURI
NATIONAL WEATHER SERVICE KANSAS CITY/PLEASANT HILL MO
800 AM CST FRI NOV 22 2019

KSZ040-057-103>105-MOZ028-029-037-043-221500-
...KANSAS CITY METROPOLITAN AREA...

CITY           SKY/WX    TMP DP  RH WIND       PRES   REMARKS
K.C. INTL      CLOUDY    29  26  89 N9        30.21S WCI  20
K.C. DOWNTOWN  CLEAR     32  25  75 N6        30.23R WCI  26
LEES SUMMIT    CLEAR     31  25  78 NE12      30.22R WCI  22
OLATHE - IXD   PTCLDY    31  27  85 N5        30.22R WCI  26
OLATHE - OJC   CLEAR     31  27  85 NE9       30.20R WCI  23
LAWRENCE       MOCLDY    32  25  75 NW6       30.25R WCI  26

$$

MOZ001>008-011>017-020>025-030>033-038>040-044>046-053-054-221500-
...NORTHERN AND CENTRAL MISSOURI...

CITY           SKY/WX    TMP DP  RH WIND       PRES   REMARKS
ST. JOSEPH     CLEAR     28  24  85 N9        30.24F WCI  19
MOSBY          SUNNY     30  27  86 N7        30.24R WCI  23
WARRENSBURG      N/A    N/A N/A N/A MISG        N/A
WHITEMAN AFB   MOCLDY    31  30  99 N10       30.16S WCI  22
CLINTON        CLOUDY    32  28  86 NE12      30.21R WCI  23
SEDALIA        CLEAR     31  26  82 N9        30.22S WCI  23
WARSAW         NOT AVBL
CHILLICOTHE      N/A     27  24  89 N5        30.23F WCI  22
KIRKSVILLE     MOCLDY    25  22  88 N8        30.23R WCI  16

$$

MOZ041-047>049-056>058-063>065-088>090-097-221500-
...EASTERN AND SOUTHERN MISSOURI...

CITY           SKY/WX    TMP DP  RH WIND       PRES   REMARKS
ST. LOUIS INTL CLOUDY    35  28  75 N10       30.19R WCI  27
SPIRIT OF STL  CLOUDY    36  29  75 N12       30.19R WCI  28
COLUMBIA       PTCLDY    32  27  81 N7        30.21R WCI  26
JEFFERSON CITY MOCLDY    34  27  75 N8        30.21R WCI  27
ROLLA          CLOUDY    35  31  85 N7        30.16R WCI  29
OSAGE BEACH    PTCLDY    35  31  85 N6        30.19R WCI  30
SPRINGFIELD    CLOUDY    36  31  82 NE13      30.12S WCI  27
BRANSON        CLOUDY    37  37 100 N6        30.11F FOG     WCI  33
JOPLIN         LGT RAIN  36  33  89 N8        30.18R WCI  30
WEST PLAINS    CLOUDY    40  37  89 N3        30.13R

$$

IAZ060-094-KSZ022-034>040-054-083-096-NEZ052-066-093-221500-
...KANSAS...SOUTHEAST NEBRASKA AND IOWA...

CITY           SKY/WX    TMP DP  RH WIND       PRES   REMARKS
TOPEKA         MOCLDY    30  25  81 N3        30.26R
MANHATTAN      PTCLDY    30  24  78 N3        30.26R
EMPORIA        LGT RAIN N/A N/A N/A N10       30.21S
CHANUTE        LGT RAIN  37  32  82 N12       30.20R WCI  29
WICHITA        CLOUDY    33  29  85 N14       30.20F WCI  23
OMAHA          PTCLDY    23  20  88 N12       30.25S WCI  12
LINCOLN        CLEAR     22  17  81 NW5       30.27R WCI  16
FALLS CITY       N/A     25  21  85 NW5       30.25S WCI  19
LAMONI         CLEAR     23  20  88 N8        30.21S WCI  14
DES MOINES     CLOUDY    23  18  81 N9        30.25F WCI  13

$$




USA.gov is the U.S. government's official web portal to all federal, state and local government web resources and services.